Willimantic, CT

1:55 PM EDT on August 22, 2017 (GMT -0400)
Windham

Weather History for KIJD - December, 2012

Change the Weather History Date:

Saturday, December 1, 2012

  Actual Average Record
Temperature  
Mean Temperature 33 °F -  
Max Temperature 37 °F 44 °F 72 °F (2001)
Min Temperature 30 °F 23 °F 6 °F (1976)
Degree Days  
Heating Degree Days 32    
Moisture  
Dew Point 26 °F    
Average Humidity 75    
Maximum Humidity 86    
Minimum Humidity 54    
Precipitation  
Precipitation 0.00 in - - ()
Sea Level Pressure  
Sea Level Pressure 30.54 in    
Wind  
Wind Speed 5 mph (NE)    
Max Wind Speed 8 mph    
Max Gust Speed -    
Visibility 8 miles    
Events Snow    
Averages and records for this station are not official NWS values.
T = Trace of Precipitation, MM = Missing Value Source: NWS Daily Summary

Daily Weather History Graph

Daily Weather History Graph

Search for Another Location

Airport or City:

Trip Planner

Search our weather history database for the weather conditions in past years. The results will help you decide how hot, cold, wet, or windy it might be!

Date:

Astronomy

Dec. 01, 2012 Rise Set
Actual Time 6:56 AM EST 4:18 PM EST
Civil Twilight 6:25 AM EST 4:49 PM EST
Nautical Twilight 5:51 AM EST 5:24 PM EST
Astronomical Twilight 5:17 AM EST 5:57 PM EST
Moon 7:06 PM EST (12/1) 9:07 AM EST (12/1)
Length of Visible Light 10h 24m
Length of Day
9h 22m
Waning Gibbous, 92% of the Moon is Illuminated
Dec 1
Waning Gibbous
Dec 6
Last Quarter
Dec 13
New
Dec 20
First Quarter
Dec 28
Full

Hourly Weather History & Observations

Time (EST) Temp. Windchill Dew Point Humidity Pressure Visibility Wind Dir Wind Speed Gust Speed Precip Events Conditions
12:52 AM 33.1 °F 27.7 °F 18.0 °F 54% 30.53 in 10.0 mi ENE 5.8 mph - N/A   Overcast
1:52 AM 33.1 °F 27.7 °F 18.0 °F 54% 30.55 in 10.0 mi ENE 5.8 mph - N/A   Overcast
2:52 AM 32.0 °F 24.8 °F 19.0 °F 59% 30.55 in 10.0 mi NNE 8.1 mph - N/A   Overcast
3:52 AM 30.9 °F 25.2 °F 19.0 °F 61% 30.54 in 9.0 mi ENE 5.8 mph - 0.00 in Snow Light Snow
4:52 AM 30.0 °F 25.2 °F 23.0 °F 75% 30.53 in 8.0 mi NE 4.6 mph - 0.00 in Snow Light Snow
5:17 AM 30.2 °F - 23.0 °F 75% 30.53 in 10.0 mi Calm Calm - 0.00 in   Overcast
5:52 AM 30.0 °F 24.1 °F 23.0 °F 75% 30.55 in 10.0 mi NNE 5.8 mph - 0.00 in   Overcast
6:52 AM 30.0 °F 23.2 °F 23.0 °F 75% 30.58 in 10.0 mi NNE 6.9 mph - N/A   Overcast
7:52 AM 30.9 °F 24.3 °F 23.0 °F 72% 30.59 in 10.0 mi NNE 6.9 mph - N/A   Overcast
8:52 AM 30.9 °F 25.2 °F 23.0 °F 72% 30.60 in 10.0 mi NE 5.8 mph - N/A   Overcast
9:52 AM 32.0 °F 26.4 °F 24.1 °F 73% 30.61 in 10.0 mi NE 5.8 mph - 0.00 in   Overcast
10:44 AM 33.8 °F 28.6 °F 26.6 °F 75% 30.57 in 2.0 mi NE 5.8 mph - 0.00 in Snow Light Snow
10:52 AM 33.1 °F 27.7 °F 26.1 °F 75% 30.58 in 8.0 mi NE 5.8 mph - 0.00 in Snow Light Snow
11:52 AM 34.0 °F 28.8 °F 27.0 °F 75% 30.56 in 10.0 mi NE 5.8 mph - 0.00 in   Overcast
12:52 PM 35.1 °F 30.1 °F 27.0 °F 72% 30.54 in 10.0 mi NE 5.8 mph - N/A   Overcast
1:52 PM 34.0 °F 28.8 °F 28.0 °F 79% 30.53 in 6.0 mi NE 5.8 mph - N/A   Haze
2:38 PM 33.8 °F 29.6 °F 28.4 °F 81% 30.52 in 4.0 mi North 4.6 mph - N/A   Haze
2:52 PM 34.0 °F 29.8 °F 28.9 °F 82% 30.53 in 5.0 mi NNE 4.6 mph - N/A   Haze
3:52 PM 34.0 °F 28.8 °F 28.9 °F 82% 30.53 in 6.0 mi NNE 5.8 mph - N/A   Haze
4:52 PM 34.0 °F - 30.0 °F 85% 30.54 in 9.0 mi Calm Calm - N/A   Overcast
5:52 PM 34.0 °F 29.8 °F 30.0 °F 85% 30.55 in 10.0 mi NNE 4.6 mph - N/A   Overcast
6:52 PM 35.1 °F 31.0 °F 30.0 °F 82% 30.53 in 9.0 mi North 4.6 mph - N/A   Overcast
7:52 PM 35.1 °F 31.0 °F 30.0 °F 82% 30.52 in 8.0 mi North 4.6 mph - N/A   Overcast
8:52 PM 35.1 °F 32.2 °F 30.9 °F 85% 30.51 in 8.0 mi NNE 3.5 mph - N/A   Overcast
9:52 PM 36.0 °F 32.1 °F 30.9 °F 82% 30.50 in 8.0 mi NNE 4.6 mph - N/A   Overcast
10:52 PM 36.0 °F - 32.0 °F 86% 30.49 in 8.0 mi Calm Calm - N/A   Overcast
11:52 PM 37.0 °F - 32.0 °F 82% 30.48 in 8.0 mi Calm Calm - N/A   Overcast